GEFSSE_prec_meanprecacc_144.txt.gz
Total_Precipitation_Accumulation
0.03 0.04 0.09 0.06 0.06 0.08 0.10 0.13 0.14 0.13 0.13 0.11 0.09 0.06 0.05 0.05 0.05 0.04 0.04 0.05 0.07 0.10 0.13 0.17 0.19 0.21 0.23 0.24 0.22 0.21 0.22 0.26 0.37 0.43 0.44 0.45 0.54 0.74 0.91 0.89 0.89 0.64 0.50
0.01 0.02 0.08 0.05 0.05 0.06 0.08 0.12 0.13 0.13 0.13 0.13 0.11 0.08 0.06 0.06 0.05 0.05 0.05 0.06 0.07 0.09 0.11 0.14 0.15 0.15 0.16 0.17 0.16 0.16 0.19 0.29 0.46 0.57 0.62 0.55 0.68 0.86 0.87 0.78 0.90 0.55 0.45
0.01 0.01 0.05 0.05 0.04 0.05 0.07 0.09 0.10 0.10 0.12 0.12 0.11 0.09 0.08 0.07 0.06 0.06 0.06 0.07 0.09 0.10 0.11 0.11 0.10 0.11 0.12 0.13 0.14 0.18 0.22 0.38 0.62 0.82 0.98 0.82 0.55 0.83 0.88 0.77 0.64 0.37 0.40
0.02 0.02 0.03 0.06 0.06 0.05 0.06 0.08 0.09 0.10 0.10 0.11 0.09 0.09 0.09 0.08 0.08 0.09 0.08 0.09 0.11 0.13 0.12 0.10 0.09 0.09 0.10 0.13 0.17 0.23 0.30 0.43 0.66 1.03 1.36 0.88 0.41 0.50 0.61 0.53 0.45 0.34 0.34
0.03 0.04 0.07 0.09 0.07 0.06 0.06 0.08 0.09 0.09 0.10 0.10 0.10 0.10 0.10 0.09 0.10 0.11 0.10 0.11 0.12 0.13 0.11 0.10 0.09 0.09 0.10 0.12 0.17 0.23 0.33 0.48 0.68 0.95 0.92 0.85 0.66 0.47 0.44 0.38 0.37 0.33 0.30
0.05 0.06 0.07 0.10 0.08 0.07 0.06 0.07 0.09 0.10 0.09 0.11 0.11 0.11 0.12 0.11 0.11 0.11 0.11 0.11 0.13 0.13 0.12 0.10 0.08 0.08 0.11 0.12 0.16 0.20 0.30 0.49 0.67 0.64 0.55 0.59 0.55 0.49 0.44 0.44 0.48 0.41 0.31
0.07 0.06 0.07 0.09 0.09 0.08 0.07 0.08 0.09 0.09 0.10 0.10 0.11 0.10 0.11 0.12 0.13 0.13 0.12 0.11 0.13 0.14 0.14 0.10 0.08 0.08 0.09 0.11 0.15 0.21 0.37 0.58 0.68 0.56 0.50 0.60 0.49 0.40 0.50 0.62 0.72 0.60 0.48
0.11 0.07 0.08 0.12 0.13 0.11 0.11 0.12 0.11 0.10 0.11 0.11 0.11 0.10 0.10 0.11 0.13 0.14 0.14 0.13 0.14 0.14 0.13 0.10 0.08 0.09 0.10 0.13 0.17 0.23 0.38 0.52 0.59 0.53 0.48 0.51 0.35 0.36 0.57 0.76 0.87 0.82 0.74
0.21 0.19 0.13 0.13 0.15 0.16 0.16 0.16 0.15 0.13 0.13 0.13 0.13 0.12 0.11 0.11 0.13 0.15 0.19 0.20 0.19 0.18 0.17 0.13 0.10 0.09 0.10 0.14 0.19 0.24 0.37 0.52 0.61 0.61 0.50 0.44 0.33 0.44 0.70 0.85 0.91 0.94 0.91
0.54 0.39 0.23 0.19 0.20 0.17 0.15 0.17 0.19 0.17 0.15 0.15 0.14 0.14 0.14 0.15 0.18 0.21 0.23 0.27 0.29 0.28 0.25 0.21 0.16 0.14 0.15 0.18 0.22 0.30 0.40 0.48 0.56 0.69 0.69 0.48 0.43 0.58 0.76 0.86 1.02 1.07 1.02
0.96 0.79 0.40 0.29 0.26 0.24 0.20 0.20 0.24 0.24 0.23 0.21 0.23 0.24 0.27 0.32 0.39 0.50 0.49 0.53 0.52 0.49 0.46 0.42 0.38 0.35 0.31 0.25 0.30 0.46 0.48 0.50 0.72 0.90 0.66 0.50 0.56 0.77 0.94 1.04 1.11 1.12 1.09
1.12 1.01 0.66 0.52 0.38 0.31 0.28 0.36 0.46 0.45 0.46 0.41 0.50 0.54 0.66 0.82 0.77 0.64 0.77 0.96 0.98 0.98 0.91 0.88 0.86 0.70 0.52 0.48 0.90 1.17 0.74 0.75 0.83 0.71 0.62 0.67 0.89 1.15 1.39 1.31 1.18 1.09 1.01
1.29 1.13 0.86 0.76 0.67 0.53 0.59 0.54 0.61 0.70 0.82 0.70 0.68 0.79 1.07 1.04 0.83 0.79 0.90 1.11 1.32 1.32 1.22 1.42 1.48 1.10 1.03 1.24 1.53 1.47 1.03 1.06 0.97 0.82 0.69 0.90 1.20 1.57 1.84 1.76 1.47 1.24 1.06
1.60 1.41 1.18 0.97 0.84 0.79 0.77 0.72 0.73 0.74 0.90 0.88 1.00 1.04 1.20 1.37 1.28 1.24 1.32 1.34 1.46 1.58 1.81 1.86 1.91 1.71 1.65 1.59 1.71 1.54 1.33 1.31 1.14 1.23 1.29 1.44 1.47 1.67 2.08 2.09 1.80 1.55 1.36
2.06 1.92 1.73 1.40 1.29 1.19 1.19 1.17 1.04 1.05 1.14 1.23 1.35 1.35 1.35 1.54 1.53 1.59 1.59 1.63 1.54 1.65 1.86 2.06 2.01 2.09 2.16 1.98 1.71 1.57 1.58 1.58 1.61 1.59 1.57 1.81 1.71 1.69 2.08 2.20 2.01 1.81 1.67
2.62 2.62 2.46 2.14 2.05 1.90 1.69 1.54 1.49 1.41 1.49 1.51 1.56 1.53 1.60 1.78 1.90 1.83 1.67 1.69 1.63 1.68 1.79 1.99 2.07 2.37 2.32 2.23 1.80 1.62 1.66 1.74 1.74 1.77 1.76 2.02 1.91 1.68 1.86 2.07 2.18 2.09 1.92
2.79 2.95 3.00 2.90 2.86 2.68 2.41 2.08 1.88 1.86 1.77 1.85 1.90 1.85 1.93 1.99 2.08 2.00 1.82 1.68 1.74 1.80 1.88 1.92 2.05 2.33 2.27 2.16 1.89 1.76 1.67 1.57 1.48 1.53 1.60 1.76 1.71 1.63 1.70 1.83 2.05 2.10 2.06
2.97 3.14 3.38 3.46 3.43 3.20 2.91 2.61 2.36 2.22 2.13 2.09 2.05 2.00 1.96 2.06 2.08 2.04 1.83 1.65 1.84 1.84 1.89 2.02 2.11 2.24 2.33 2.36 2.08 1.82 1.69 1.57 1.42 1.42 1.38 1.41 1.50 1.27 1.47 1.70 1.84 1.94 2.19
3.25 3.63 4.03 4.15 4.06 3.70 3.25 2.95 2.83 2.67 2.43 2.24 2.18 2.02 1.98 2.03 1.95 2.01 1.78 1.67 1.85 1.99 1.97 1.82 2.13 2.34 2.31 2.33 2.01 1.79 1.54 1.38 1.25 1.21 1.24 1.17 1.21 1.18 1.24 1.34 1.46 1.58 2.02
3.74 4.25 4.34 4.32 4.55 4.30 3.92 3.60 3.27 2.93 2.67 2.42 2.25 2.02 1.81 1.71 1.77 1.97 1.70 1.70 1.93 2.00 1.93 2.00 2.19 2.33 2.20 2.25 2.01 1.60 1.33 1.06 1.02 0.96 0.89 0.91 0.86 0.78 0.89 1.12 1.42 1.32 1.68
3.70 4.08 4.43 4.50 4.41 4.25 3.98 3.53 3.09 2.68 2.51 2.28 2.06 1.86 1.76 1.74 1.85 2.11 1.86 1.89 1.91 1.85 1.82 1.99 2.13 2.04 1.91 2.31 2.28 1.59 1.07 0.82 0.72 0.57 0.61 0.62 0.56 0.60 0.82 1.11 1.30 1.37 1.30
3.10 3.44 3.72 3.82 3.46 3.08 2.91 2.81 2.65 2.56 2.25 2.07 2.05 2.03 1.87 1.83 1.84 1.89 1.93 1.84 1.84 1.81 1.65 1.73 1.95 1.84 1.54 1.95 2.13 1.95 1.35 0.91 0.66 0.44 0.46 0.46 0.51 0.64 0.74 0.81 1.05 1.27 1.25
2.62 2.70 2.75 2.73 2.56 2.44 2.47 2.53 2.58 2.62 2.38 2.29 2.29 2.25 2.01 1.92 1.87 1.92 1.80 1.64 1.61 1.57 1.47 1.46 1.64 1.71 1.51 1.54 1.87 2.13 1.68 1.10 0.85 0.57 0.55 0.56 0.68 0.81 0.81 0.86 0.95 1.07 1.16
1.99 2.17 2.44 2.44 2.35 2.39 2.58 2.57 2.52 2.51 2.52 2.58 2.70 2.64 2.47 2.23 2.05 1.91 1.70 1.50 1.35 1.29 1.27 1.19 1.35 1.46 1.49 1.27 1.39 1.51 1.47 1.39 1.29 0.90 0.67 0.67 0.81 0.88 0.91 0.95 0.97 1.03 1.15
1.62 1.79 2.08 2.38 2.51 2.60 2.74 2.76 2.83 2.78 2.75 2.69 2.69 2.58 2.38 2.23 2.05 1.81 1.64 1.49 1.36 1.25 1.18 1.14 1.20 1.19 1.21 1.11 1.16 1.22 1.28 1.28 1.23 1.15 0.89 0.85 0.85 0.70 0.71 0.78 0.91 1.18 1.29
1.73 1.77 1.88 2.16 2.44 2.60 2.66 2.66 2.64 2.56 2.49 2.36 2.22 1.99 1.80 1.69 1.60 1.50 1.39 1.26 1.19 1.18 1.18 1.13 1.09 1.08 1.08 1.09 1.09 1.09 1.19 1.27 1.31 1.33 1.15 1.02 0.92 0.77 0.74 0.75 0.82 1.01 1.12

GEFSSE_prec_meanprecacc_150.txt.gz
Total_Precipitation_Accumulation
0.03 0.05 0.11 0.08 0.07 0.08 0.11 0.13 0.14 0.13 0.13 0.12 0.09 0.07 0.05 0.06 0.05 0.05 0.05 0.06 0.09 0.12 0.15 0.20 0.23 0.24 0.28 0.29 0.28 0.26 0.27 0.30 0.40 0.46 0.47 0.49 0.59 0.79 0.96 0.92 0.93 0.67 0.52
0.01 0.03 0.09 0.06 0.05 0.07 0.09 0.12 0.13 0.13 0.13 0.13 0.11 0.08 0.06 0.06 0.05 0.06 0.05 0.07 0.09 0.12 0.14 0.17 0.18 0.18 0.20 0.21 0.20 0.20 0.23 0.33 0.50 0.62 0.69 0.62 0.76 0.91 0.90 0.79 0.91 0.58 0.48
0.01 0.01 0.05 0.06 0.05 0.06 0.07 0.09 0.11 0.11 0.12 0.12 0.11 0.09 0.08 0.07 0.06 0.06 0.07 0.08 0.12 0.13 0.13 0.14 0.12 0.13 0.15 0.16 0.19 0.22 0.26 0.44 0.69 0.92 1.06 0.87 0.62 0.89 0.92 0.80 0.66 0.40 0.43
0.02 0.02 0.04 0.07 0.06 0.06 0.07 0.08 0.10 0.10 0.11 0.11 0.10 0.09 0.09 0.08 0.09 0.10 0.09 0.11 0.14 0.15 0.14 0.12 0.11 0.11 0.13 0.16 0.21 0.29 0.37 0.49 0.72 1.08 1.38 0.89 0.44 0.56 0.67 0.58 0.49 0.37 0.37
0.03 0.04 0.08 0.09 0.07 0.06 0.06 0.08 0.09 0.10 0.10 0.10 0.10 0.10 0.10 0.10 0.11 0.12 0.12 0.13 0.14 0.15 0.14 0.12 0.10 0.11 0.12 0.15 0.21 0.30 0.41 0.53 0.73 0.97 0.93 0.86 0.68 0.53 0.48 0.43 0.40 0.37 0.34
0.05 0.06 0.08 0.10 0.08 0.07 0.06 0.08 0.09 0.10 0.10 0.11 0.11 0.12 0.12 0.12 0.13 0.12 0.12 0.12 0.14 0.15 0.16 0.13 0.09 0.10 0.13 0.15 0.20 0.29 0.38 0.53 0.69 0.64 0.56 0.60 0.56 0.53 0.48 0.48 0.52 0.45 0.35
0.07 0.06 0.07 0.10 0.09 0.08 0.07 0.09 0.09 0.09 0.10 0.10 0.11 0.11 0.12 0.13 0.14 0.14 0.13 0.13 0.15 0.15 0.16 0.12 0.10 0.10 0.12 0.15 0.21 0.29 0.45 0.61 0.69 0.56 0.51 0.60 0.51 0.43 0.53 0.65 0.75 0.64 0.51
0.11 0.07 0.08 0.13 0.14 0.11 0.11 0.12 0.11 0.10 0.11 0.12 0.12 0.10 0.11 0.11 0.13 0.15 0.15 0.15 0.17 0.16 0.16 0.14 0.12 0.13 0.12 0.17 0.22 0.29 0.44 0.55 0.59 0.53 0.49 0.52 0.37 0.38 0.59 0.79 0.88 0.84 0.76
0.23 0.20 0.14 0.14 0.16 0.17 0.17 0.16 0.15 0.13 0.13 0.13 0.14 0.12 0.11 0.12 0.13 0.16 0.20 0.22 0.22 0.20 0.19 0.15 0.12 0.12 0.13 0.18 0.24 0.30 0.44 0.57 0.61 0.61 0.51 0.45 0.35 0.46 0.72 0.87 0.92 0.95 0.92
0.56 0.42 0.25 0.21 0.22 0.18 0.16 0.17 0.20 0.17 0.16 0.16 0.15 0.14 0.14 0.16 0.19 0.22 0.24 0.29 0.31 0.30 0.27 0.22 0.18 0.16 0.18 0.22 0.27 0.39 0.51 0.53 0.57 0.69 0.69 0.49 0.45 0.59 0.77 0.87 1.02 1.08 1.03
1.03 0.83 0.43 0.32 0.29 0.26 0.21 0.21 0.26 0.26 0.23 0.22 0.23 0.25 0.28 0.33 0.39 0.50 0.49 0.54 0.53 0.50 0.47 0.43 0.40 0.37 0.34 0.28 0.37 0.55 0.55 0.51 0.73 0.91 0.66 0.51 0.58 0.79 0.95 1.04 1.12 1.13 1.09
1.19 1.05 0.69 0.54 0.41 0.33 0.29 0.37 0.47 0.45 0.47 0.42 0.50 0.55 0.66 0.82 0.77 0.64 0.78 0.98 0.99 1.00 0.92 0.90 0.89 0.72 0.54 0.50 0.94 1.21 0.76 0.76 0.85 0.72 0.62 0.68 0.90 1.17 1.41 1.33 1.19 1.10 1.02
1.34 1.16 0.89 0.78 0.69 0.55 0.59 0.55 0.61 0.71 0.83 0.70 0.68 0.79 1.07 1.05 0.83 0.79 0.91 1.12 1.33 1.33 1.23 1.44 1.50 1.11 1.05 1.27 1.55 1.48 1.05 1.07 0.98 0.82 0.70 0.92 1.22 1.59 1.87 1.78 1.49 1.25 1.08
1.63 1.44 1.21 1.00 0.87 0.80 0.77 0.73 0.74 0.74 0.90 0.88 1.00 1.04 1.20 1.37 1.28 1.25 1.32 1.35 1.47 1.59 1.83 1.88 1.92 1.72 1.67 1.62 1.73 1.56 1.35 1.33 1.15 1.23 1.31 1.48 1.50 1.70 2.12 2.13 1.82 1.57 1.38
2.11 1.96 1.76 1.42 1.33 1.21 1.20 1.18 1.04 1.05 1.15 1.23 1.35 1.35 1.35 1.54 1.53 1.59 1.60 1.65 1.55 1.66 1.88 2.08 2.03 2.11 2.18 2.00 1.73 1.58 1.61 1.60 1.63 1.60 1.58 1.86 1.76 1.73 2.14 2.25 2.04 1.83 1.68
2.73 2.72 2.51 2.16 2.09 1.93 1.71 1.55 1.49 1.41 1.49 1.51 1.56 1.53 1.60 1.79 1.90 1.84 1.68 1.70 1.65 1.70 1.81 2.00 2.10 2.39 2.35 2.25 1.83 1.66 1.69 1.76 1.76 1.78 1.77 2.05 1.97 1.72 1.91 2.13 2.23 2.12 1.94
2.92 3.08 3.07 2.93 2.90 2.72 2.44 2.09 1.88 1.87 1.78 1.85 1.90 1.86 1.94 2.00 2.09 2.01 1.84 1.70 1.77 1.82 1.91 1.94 2.08 2.36 2.30 2.18 1.92 1.79 1.71 1.60 1.50 1.55 1.62 1.78 1.74 1.67 1.74 1.90 2.13 2.18 2.11
3.10 3.28 3.49 3.51 3.48 3.27 2.97 2.64 2.39 2.24 2.15 2.11 2.07 2.03 1.98 2.08 2.10 2.06 1.86 1.68 1.86 1.87 1.92 2.05 2.14 2.27 2.38 2.39 2.12 1.86 1.73 1.60 1.44 1.44 1.40 1.42 1.51 1.29 1.50 1.75 1.91 2.01 2.26
3.41 3.79 4.16 4.23 4.14 3.78 3.35 3.04 2.92 2.75 2.51 2.30 2.25 2.08 2.02 2.05 1.98 2.05 1.82 1.72 1.89 2.04 2.01 1.85 2.15 2.37 2.35 2.36 2.05 1.84 1.58 1.42 1.29 1.23 1.26 1.19 1.21 1.18 1.25 1.36 1.52 1.64 2.09
3.93 4.46 4.48 4.41 4.65 4.41 4.03 3.71 3.37 3.03 2.77 2.53 2.34 2.12 1.88 1.76 1.80 2.00 1.73 1.73 1.95 2.03 1.96 2.03 2.21 2.36 2.24 2.30 2.05 1.63 1.36 1.10 1.05 0.98 0.90 0.92 0.87 0.79 0.90 1.13 1.43 1.34 1.73
3.82 4.26 4.59 4.62 4.54 4.38 4.09 3.63 3.18 2.77 2.61 2.39 2.17 1.97 1.85 1.80 1.89 2.15 1.88 1.91 1.92 1.86 1.84 2.03 2.15 2.06 1.93 2.33 2.30 1.62 1.09 0.84 0.74 0.59 0.62 0.63 0.57 0.60 0.83 1.12 1.30 1.37 1.32
3.18 3.57 3.88 3.95 3.61 3.24 3.06 2.95 2.78 2.68 2.39 2.21 2.18 2.16 1.99 1.95 1.92 1.94 1.97 1.87 1.86 1.83 1.67 1.76 1.98 1.86 1.55 1.96 2.14 1.97 1.36 0.92 0.67 0.45 0.47 0.47 0.51 0.65 0.74 0.82 1.06 1.28 1.26
2.69 2.82 2.89 2.87 2.75 2.67 2.70 2.76 2.80 2.84 2.58 2.46 2.40 2.36 2.13 2.05 1.99 2.02 1.87 1.70 1.66 1.61 1.49 1.49 1.66 1.72 1.53 1.55 1.88 2.14 1.69 1.11 0.86 0.58 0.55 0.56 0.69 0.82 0.82 0.87 0.95 1.08 1.16
2.05 2.27 2.57 2.61 2.56 2.65 2.86 2.88 2.81 2.71 2.67 2.69 2.78 2.75 2.61 2.38 2.17 2.00 1.78 1.57 1.41 1.33 1.30 1.21 1.38 1.48 1.51 1.28 1.40 1.52 1.47 1.39 1.30 0.90 0.67 0.67 0.82 0.88 0.92 0.96 0.98 1.04 1.16
1.69 1.90 2.23 2.57 2.69 2.85 3.05 3.09 3.13 3.03 2.93 2.82 2.80 2.70 2.51 2.35 2.14 1.88 1.69 1.53 1.40 1.28 1.20 1.16 1.22 1.21 1.23 1.13 1.17 1.23 1.28 1.28 1.24 1.15 0.89 0.85 0.85 0.70 0.72 0.79 0.92 1.19 1.30
1.83 1.91 2.02 2.29 2.59 2.81 2.90 2.91 2.88 2.77 2.67 2.50 2.36 2.11 1.90 1.80 1.69 1.57 1.45 1.31 1.22 1.20 1.21 1.15 1.12 1.10 1.10 1.10 1.11 1.10 1.19 1.27 1.32 1.34 1.16 1.02 0.92 0.77 0.74 0.76 0.83 1.02 1.13

GEFSSE_prec_meanprecacc_156.txt.gz
Total_Precipitation_Accumulation
0.04 0.05 0.12 0.09 0.08 0.10 0.13 0.16 0.16 0.15 0.14 0.12 0.10 0.08 0.06 0.07 0.06 0.05 0.06 0.08 0.11 0.15 0.18 0.23 0.27 0.27 0.31 0.33 0.32 0.30 0.31 0.36 0.46 0.50 0.51 0.53 0.63 0.83 1.01 0.98 0.98 0.71 0.57
0.01 0.03 0.10 0.07 0.07 0.08 0.10 0.14 0.15 0.15 0.14 0.13 0.12 0.09 0.07 0.07 0.06 0.07 0.07 0.10 0.13 0.14 0.16 0.20 0.21 0.20 0.23 0.26 0.25 0.24 0.28 0.38 0.58 0.69 0.77 0.71 0.83 0.95 0.94 0.84 0.96 0.63 0.55
0.01 0.02 0.06 0.07 0.06 0.06 0.08 0.11 0.12 0.12 0.13 0.13 0.12 0.10 0.10 0.08 0.07 0.08 0.09 0.12 0.15 0.15 0.15 0.15 0.15 0.16 0.18 0.21 0.23 0.26 0.30 0.49 0.76 0.99 1.14 0.96 0.68 0.95 0.97 0.83 0.71 0.47 0.52
0.02 0.02 0.04 0.07 0.07 0.06 0.07 0.09 0.11 0.11 0.11 0.12 0.10 0.10 0.11 0.09 0.10 0.12 0.12 0.14 0.17 0.18 0.16 0.14 0.14 0.14 0.15 0.19 0.26 0.33 0.40 0.55 0.79 1.13 1.44 0.93 0.48 0.61 0.73 0.62 0.54 0.44 0.43
0.03 0.04 0.08 0.10 0.07 0.07 0.07 0.09 0.10 0.10 0.10 0.10 0.10 0.11 0.11 0.11 0.13 0.14 0.15 0.16 0.17 0.18 0.16 0.14 0.13 0.14 0.15 0.18 0.26 0.35 0.44 0.58 0.78 1.00 0.96 0.90 0.75 0.60 0.54 0.47 0.46 0.43 0.38
0.05 0.06 0.08 0.10 0.08 0.07 0.07 0.08 0.10 0.11 0.10 0.11 0.12 0.12 0.14 0.14 0.15 0.15 0.15 0.15 0.18 0.18 0.18 0.15 0.11 0.12 0.16 0.18 0.25 0.35 0.43 0.56 0.71 0.66 0.58 0.65 0.62 0.59 0.54 0.53 0.58 0.50 0.39
0.07 0.06 0.07 0.10 0.10 0.08 0.08 0.09 0.10 0.10 0.10 0.11 0.12 0.12 0.13 0.14 0.16 0.17 0.17 0.16 0.18 0.19 0.19 0.15 0.13 0.14 0.16 0.20 0.25 0.35 0.52 0.65 0.71 0.57 0.54 0.65 0.55 0.48 0.58 0.70 0.81 0.69 0.55
0.11 0.07 0.08 0.13 0.14 0.12 0.11 0.12 0.12 0.11 0.11 0.12 0.13 0.12 0.12 0.14 0.16 0.17 0.19 0.18 0.20 0.21 0.19 0.16 0.16 0.18 0.19 0.24 0.29 0.36 0.50 0.57 0.60 0.54 0.51 0.55 0.39 0.42 0.63 0.82 0.93 0.88 0.80
0.23 0.20 0.14 0.14 0.17 0.17 0.17 0.16 0.16 0.14 0.14 0.14 0.15 0.13 0.14 0.15 0.16 0.18 0.23 0.25 0.25 0.23 0.21 0.16 0.14 0.15 0.19 0.25 0.30 0.37 0.49 0.58 0.62 0.62 0.52 0.48 0.38 0.49 0.75 0.90 0.96 0.99 0.96
0.56 0.42 0.26 0.23 0.23 0.19 0.16 0.18 0.20 0.18 0.17 0.17 0.16 0.16 0.17 0.19 0.21 0.24 0.26 0.32 0.34 0.33 0.29 0.25 0.20 0.20 0.24 0.29 0.35 0.48 0.57 0.55 0.58 0.69 0.71 0.51 0.47 0.62 0.79 0.90 1.06 1.11 1.05
1.04 0.83 0.46 0.35 0.32 0.29 0.23 0.22 0.27 0.27 0.25 0.23 0.26 0.27 0.32 0.38 0.43 0.53 0.51 0.57 0.56 0.53 0.50 0.47 0.44 0.40 0.38 0.32 0.44 0.64 0.61 0.53 0.74 0.91 0.68 0.53 0.60 0.82 0.97 1.07 1.14 1.15 1.11
1.20 1.07 0.71 0.57 0.45 0.37 0.32 0.40 0.50 0.48 0.50 0.45 0.54 0.58 0.71 0.87 0.82 0.66 0.80 1.01 1.02 1.02 0.94 0.93 0.92 0.75 0.56 0.53 0.99 1.27 0.81 0.78 0.86 0.74 0.65 0.71 0.94 1.21 1.45 1.36 1.22 1.12 1.04
1.36 1.19 0.92 0.82 0.73 0.58 0.63 0.58 0.64 0.74 0.86 0.74 0.72 0.82 1.10 1.07 0.85 0.81 0.94 1.17 1.38 1.36 1.27 1.46 1.52 1.13 1.07 1.30 1.59 1.54 1.10 1.10 1.00 0.84 0.72 0.95 1.26 1.64 1.91 1.81 1.52 1.30 1.12
1.66 1.47 1.24 1.04 0.90 0.84 0.81 0.76 0.76 0.76 0.92 0.90 1.02 1.06 1.22 1.39 1.30 1.27 1.36 1.40 1.52 1.64 1.89 1.91 1.96 1.74 1.69 1.63 1.76 1.59 1.38 1.35 1.17 1.27 1.37 1.51 1.54 1.76 2.19 2.16 1.84 1.59 1.41
2.13 1.99 1.79 1.46 1.36 1.24 1.24 1.20 1.06 1.06 1.16 1.25 1.37 1.37 1.36 1.55 1.54 1.60 1.63 1.68 1.59 1.70 1.92 2.11 2.05 2.13 2.21 2.03 1.75 1.61 1.64 1.63 1.65 1.64 1.64 1.90 1.81 1.78 2.20 2.30 2.07 1.85 1.70
2.76 2.76 2.55 2.21 2.13 1.96 1.74 1.57 1.51 1.42 1.50 1.52 1.57 1.54 1.61 1.80 1.92 1.86 1.71 1.73 1.69 1.74 1.84 2.03 2.13 2.42 2.38 2.28 1.87 1.70 1.74 1.82 1.80 1.81 1.82 2.10 2.01 1.76 1.96 2.18 2.28 2.16 1.96
2.95 3.13 3.13 2.96 2.94 2.77 2.47 2.12 1.90 1.87 1.78 1.86 1.92 1.87 1.95 2.01 2.11 2.04 1.87 1.73 1.80 1.87 1.96 1.99 2.12 2.39 2.34 2.22 1.99 1.85 1.79 1.65 1.54 1.57 1.65 1.82 1.79 1.71 1.78 1.95 2.19 2.25 2.15
3.16 3.35 3.55 3.55 3.52 3.31 3.01 2.67 2.41 2.25 2.17 2.14 2.09 2.05 2.00 2.11 2.14 2.10 1.90 1.72 1.91 1.91 1.97 2.12 2.20 2.33 2.44 2.46 2.20 1.94 1.81 1.65 1.48 1.47 1.43 1.45 1.56 1.33 1.55 1.78 1.94 2.05 2.30
3.49 3.87 4.23 4.28 4.18 3.82 3.39 3.09 2.96 2.78 2.54 2.34 2.30 2.13 2.06 2.10 2.04 2.10 1.88 1.77 1.94 2.10 2.07 1.89 2.19 2.43 2.42 2.45 2.11 1.91 1.65 1.47 1.33 1.26 1.28 1.20 1.23 1.22 1.29 1.40 1.55 1.66 2.11
4.00 4.55 4.57 4.49 4.70 4.47 4.09 3.78 3.44 3.11 2.84 2.58 2.40 2.20 1.97 1.84 1.86 2.07 1.79 1.79 2.00 2.10 2.03 2.08 2.28 2.43 2.32 2.38 2.10 1.69 1.41 1.14 1.08 1.01 0.93 0.94 0.88 0.81 0.93 1.16 1.48 1.38 1.75
3.87 4.35 4.72 4.73 4.60 4.44 4.15 3.68 3.23 2.83 2.67 2.44 2.22 2.01 1.92 1.87 1.94 2.21 1.96 1.98 1.99 1.93 1.92 2.09 2.21 2.12 1.99 2.40 2.38 1.69 1.15 0.87 0.76 0.62 0.65 0.66 0.58 0.62 0.85 1.16 1.35 1.42 1.34
3.21 3.64 3.99 4.08 3.72 3.34 3.16 3.07 2.87 2.75 2.44 2.26 2.22 2.20 2.05 2.01 2.00 2.01 2.06 1.95 1.94 1.93 1.78 1.86 2.06 1.91 1.60 2.01 2.20 2.04 1.43 0.98 0.70 0.47 0.49 0.49 0.52 0.66 0.75 0.83 1.08 1.31 1.28
2.71 2.85 2.96 3.00 2.90 2.80 2.84 2.95 2.97 2.98 2.68 2.54 2.46 2.42 2.19 2.11 2.07 2.10 1.94 1.77 1.74 1.69 1.58 1.59 1.76 1.82 1.60 1.60 1.92 2.19 1.74 1.16 0.89 0.60 0.57 0.57 0.70 0.83 0.83 0.87 0.96 1.09 1.18
2.06 2.31 2.64 2.73 2.72 2.79 2.98 3.00 2.98 2.89 2.82 2.81 2.89 2.86 2.70 2.46 2.24 2.06 1.83 1.63 1.48 1.39 1.38 1.28 1.45 1.57 1.60 1.35 1.46 1.57 1.50 1.43 1.33 0.93 0.69 0.68 0.82 0.90 0.93 0.96 0.98 1.04 1.16
1.70 1.93 2.29 2.66 2.82 2.96 3.14 3.19 3.32 3.25 3.09 2.96 2.94 2.87 2.64 2.46 2.24 1.95 1.76 1.60 1.46 1.34 1.27 1.23 1.30 1.28 1.30 1.21 1.24 1.28 1.32 1.31 1.26 1.18 0.92 0.88 0.87 0.71 0.72 0.79 0.92 1.19 1.30
1.84 1.93 2.06 2.34 2.65 2.88 3.00 3.04 3.04 2.98 2.87 2.65 2.49 2.25 2.02 1.92 1.81 1.65 1.52 1.38 1.29 1.26 1.28 1.23 1.20 1.18 1.18 1.19 1.19 1.17 1.25 1.31 1.35 1.37 1.19 1.05 0.94 0.78 0.75 0.76 0.84 1.02 1.14

GEFSSE_prec_meanprecacc_162.txt.gz
Total_Precipitation_Accumulation
0.04 0.05 0.13 0.10 0.10 0.12 0.15 0.18 0.18 0.16 0.15 0.13 0.11 0.08 0.07 0.08 0.07 0.06 0.07 0.10 0.14 0.17 0.21 0.26 0.30 0.30 0.33 0.35 0.35 0.33 0.35 0.41 0.52 0.53 0.53 0.54 0.65 0.86 1.05 1.05 1.08 0.74 0.58
0.01 0.03 0.10 0.08 0.07 0.09 0.12 0.16 0.17 0.16 0.15 0.14 0.13 0.10 0.09 0.08 0.08 0.09 0.10 0.13 0.16 0.18 0.20 0.23 0.24 0.23 0.25 0.28 0.27 0.27 0.32 0.44 0.65 0.74 0.81 0.74 0.85 0.99 1.00 0.95 1.09 0.66 0.59
0.01 0.02 0.06 0.07 0.06 0.07 0.09 0.13 0.14 0.14 0.15 0.15 0.14 0.12 0.11 0.10 0.10 0.10 0.14 0.16 0.18 0.18 0.19 0.19 0.18 0.18 0.20 0.22 0.25 0.29 0.33 0.54 0.85 1.09 1.27 1.06 0.72 0.98 1.02 0.91 0.77 0.51 0.58
0.02 0.02 0.04 0.08 0.07 0.07 0.09 0.11 0.13 0.14 0.14 0.14 0.12 0.13 0.13 0.12 0.14 0.15 0.17 0.19 0.21 0.21 0.20 0.18 0.17 0.17 0.17 0.22 0.28 0.35 0.43 0.59 0.89 1.33 1.62 1.00 0.51 0.63 0.76 0.66 0.59 0.50 0.49
0.03 0.04 0.08 0.10 0.08 0.07 0.08 0.11 0.12 0.12 0.12 0.13 0.13 0.14 0.14 0.15 0.17 0.19 0.20 0.21 0.22 0.23 0.21 0.18 0.16 0.16 0.17 0.21 0.29 0.37 0.47 0.62 0.87 1.17 1.07 0.98 0.78 0.63 0.57 0.50 0.51 0.49 0.42
0.05 0.06 0.08 0.10 0.09 0.08 0.07 0.09 0.12 0.12 0.12 0.14 0.15 0.16 0.17 0.18 0.20 0.19 0.19 0.19 0.23 0.22 0.21 0.17 0.14 0.15 0.18 0.20 0.28 0.39 0.47 0.63 0.84 0.73 0.64 0.74 0.65 0.63 0.59 0.59 0.63 0.55 0.43
0.07 0.06 0.07 0.10 0.10 0.09 0.08 0.10 0.11 0.12 0.12 0.13 0.14 0.14 0.17 0.19 0.21 0.20 0.20 0.19 0.22 0.22 0.21 0.17 0.15 0.17 0.18 0.21 0.26 0.37 0.55 0.72 0.80 0.60 0.59 0.72 0.56 0.49 0.61 0.74 0.85 0.73 0.59
0.11 0.07 0.08 0.13 0.14 0.12 0.12 0.13 0.13 0.12 0.13 0.14 0.14 0.14 0.15 0.17 0.19 0.21 0.21 0.21 0.23 0.24 0.21 0.17 0.19 0.21 0.23 0.27 0.30 0.37 0.52 0.61 0.63 0.56 0.57 0.59 0.40 0.44 0.64 0.84 0.95 0.91 0.83
0.23 0.20 0.14 0.14 0.17 0.17 0.18 0.17 0.16 0.15 0.15 0.15 0.16 0.15 0.16 0.18 0.18 0.20 0.26 0.29 0.28 0.27 0.24 0.19 0.17 0.18 0.21 0.27 0.32 0.39 0.50 0.61 0.65 0.64 0.54 0.49 0.38 0.50 0.76 0.92 0.98 1.01 0.99
0.57 0.43 0.26 0.23 0.23 0.20 0.17 0.18 0.21 0.18 0.18 0.18 0.17 0.17 0.18 0.21 0.23 0.26 0.29 0.34 0.36 0.35 0.33 0.28 0.23 0.22 0.26 0.31 0.37 0.50 0.58 0.57 0.60 0.71 0.72 0.52 0.48 0.62 0.81 0.92 1.08 1.13 1.08
1.05 0.86 0.51 0.37 0.33 0.31 0.24 0.22 0.27 0.28 0.26 0.25 0.28 0.29 0.35 0.44 0.48 0.56 0.55 0.58 0.57 0.54 0.51 0.49 0.45 0.41 0.39 0.34 0.44 0.64 0.61 0.56 0.83 0.94 0.70 0.54 0.60 0.83 0.99 1.08 1.17 1.17 1.15
1.23 1.09 0.80 0.67 0.49 0.40 0.35 0.42 0.53 0.51 0.52 0.50 0.60 0.61 0.79 1.01 0.94 0.74 0.84 1.02 1.03 1.03 0.96 0.94 0.93 0.76 0.59 0.55 0.99 1.28 0.82 0.83 0.93 0.77 0.66 0.71 0.95 1.22 1.46 1.38 1.23 1.14 1.06
1.37 1.21 0.97 0.91 0.78 0.61 0.67 0.60 0.68 0.80 0.92 0.81 0.81 0.89 1.20 1.16 0.91 0.87 0.98 1.19 1.41 1.38 1.31 1.47 1.54 1.20 1.14 1.36 1.63 1.55 1.11 1.14 1.08 0.91 0.76 0.96 1.27 1.66 1.94 1.82 1.53 1.31 1.13
1.68 1.50 1.28 1.11 0.94 0.88 0.84 0.79 0.79 0.79 0.95 0.96 1.08 1.11 1.28 1.47 1.38 1.34 1.41 1.46 1.59 1.72 1.98 1.98 2.02 1.81 1.74 1.65 1.78 1.61 1.39 1.39 1.28 1.40 1.44 1.52 1.55 1.77 2.20 2.17 1.85 1.59 1.41
2.16 2.02 1.82 1.49 1.39 1.28 1.29 1.25 1.09 1.10 1.20 1.29 1.42 1.41 1.40 1.60 1.61 1.68 1.70 1.76 1.66 1.77 1.97 2.18 2.11 2.18 2.24 2.04 1.77 1.63 1.67 1.67 1.74 1.71 1.67 1.91 1.81 1.78 2.21 2.31 2.08 1.85 1.70
2.79 2.79 2.58 2.23 2.15 1.99 1.77 1.62 1.56 1.45 1.55 1.57 1.63 1.57 1.63 1.85 1.98 1.93 1.77 1.79 1.74 1.78 1.87 2.06 2.16 2.46 2.40 2.31 1.91 1.74 1.76 1.84 1.83 1.87 1.85 2.12 2.01 1.76 1.96 2.19 2.30 2.17 1.97
3.00 3.17 3.17 3.00 2.98 2.81 2.51 2.16 1.94 1.90 1.80 1.91 1.98 1.92 1.97 2.04 2.17 2.08 1.92 1.77 1.84 1.89 2.00 2.03 2.16 2.43 2.39 2.27 2.04 1.91 1.83 1.67 1.57 1.62 1.70 1.86 1.80 1.72 1.79 1.95 2.20 2.26 2.16
3.24 3.41 3.60 3.59 3.59 3.36 3.06 2.73 2.44 2.28 2.19 2.18 2.14 2.10 2.03 2.14 2.17 2.14 1.95 1.76 1.93 1.93 2.00 2.16 2.24 2.38 2.50 2.52 2.26 2.00 1.86 1.69 1.51 1.49 1.46 1.48 1.59 1.35 1.56 1.79 1.95 2.05 2.31
3.55 3.94 4.29 4.35 4.26 3.89 3.44 3.14 3.01 2.83 2.59 2.37 2.33 2.18 2.10 2.13 2.06 2.13 1.90 1.82 1.98 2.12 2.09 1.93 2.24 2.47 2.49 2.52 2.17 1.96 1.68 1.51 1.36 1.27 1.29 1.21 1.25 1.24 1.30 1.40 1.55 1.66 2.12
4.06 4.61 4.62 4.55 4.79 4.57 4.18 3.86 3.52 3.17 2.88 2.61 2.44 2.24 2.01 1.88 1.88 2.10 1.81 1.82 2.02 2.15 2.08 2.13 2.36 2.50 2.38 2.44 2.15 1.75 1.45 1.16 1.10 1.03 0.94 0.94 0.89 0.82 0.94 1.17 1.49 1.38 1.76
3.92 4.43 4.81 4.81 4.69 4.53 4.23 3.74 3.28 2.88 2.72 2.49 2.25 2.05 1.95 1.90 1.97 2.25 2.00 2.05 2.04 2.00 1.99 2.14 2.27 2.18 2.05 2.45 2.46 1.80 1.22 0.91 0.80 0.64 0.67 0.67 0.60 0.64 0.87 1.18 1.38 1.45 1.36
3.26 3.71 4.09 4.19 3.83 3.44 3.25 3.14 2.93 2.83 2.50 2.32 2.27 2.26 2.07 2.03 2.02 2.04 2.11 2.01 2.01 2.02 1.86 1.94 2.14 2.02 1.70 2.07 2.29 2.18 1.56 1.11 0.77 0.50 0.52 0.51 0.55 0.68 0.76 0.85 1.10 1.35 1.32
2.75 2.90 3.02 3.12 3.03 2.95 2.98 3.05 3.07 3.08 2.76 2.62 2.54 2.48 2.24 2.15 2.10 2.14 1.98 1.82 1.80 1.75 1.67 1.67 1.85 1.91 1.71 1.68 1.99 2.28 1.85 1.29 0.98 0.66 0.61 0.60 0.72 0.86 0.85 0.89 0.97 1.10 1.20
2.10 2.35 2.71 2.82 2.83 2.92 3.12 3.13 3.09 2.98 2.90 2.88 2.97 2.93 2.79 2.54 2.30 2.11 1.88 1.69 1.54 1.46 1.49 1.35 1.55 1.66 1.72 1.44 1.54 1.64 1.56 1.52 1.44 1.04 0.77 0.72 0.86 0.92 0.95 0.97 0.98 1.05 1.18
1.74 1.98 2.36 2.76 2.92 3.07 3.26 3.30 3.41 3.37 3.21 3.05 3.02 2.98 2.76 2.58 2.35 2.04 1.84 1.67 1.53 1.42 1.35 1.31 1.43 1.38 1.39 1.29 1.33 1.37 1.39 1.40 1.34 1.28 1.04 0.95 0.91 0.72 0.74 0.80 0.93 1.20 1.32
1.88 1.99 2.13 2.47 2.81 3.02 3.11 3.13 3.12 3.07 2.98 2.76 2.61 2.36 2.12 2.04 1.93 1.76 1.62 1.49 1.38 1.36 1.37 1.29 1.28 1.25 1.26 1.28 1.28 1.25 1.33 1.39 1.40 1.43 1.27 1.13 0.99 0.80 0.77 0.78 0.86 1.05 1.17

GEFSSE_prec_meanprecacc_168.txt.gz
Total_Precipitation_Accumulation
0.05 0.06 0.14 0.10 0.10 0.12 0.15 0.18 0.18 0.16 0.15 0.13 0.11 0.08 0.07 0.08 0.07 0.06 0.08 0.11 0.15 0.18 0.21 0.27 0.32 0.33 0.36 0.38 0.38 0.36 0.38 0.44 0.56 0.56 0.55 0.57 0.68 0.91 1.09 1.09 1.11 0.75 0.60
0.01 0.03 0.11 0.08 0.08 0.09 0.12 0.16 0.17 0.16 0.15 0.15 0.13 0.11 0.09 0.09 0.09 0.09 0.11 0.15 0.18 0.19 0.21 0.25 0.26 0.24 0.27 0.30 0.30 0.29 0.34 0.48 0.70 0.78 0.83 0.75 0.88 1.04 1.06 1.00 1.10 0.67 0.60
0.01 0.02 0.06 0.07 0.06 0.07 0.09 0.13 0.14 0.14 0.15 0.16 0.15 0.13 0.13 0.13 0.12 0.12 0.15 0.17 0.19 0.20 0.20 0.20 0.19 0.19 0.22 0.25 0.27 0.32 0.38 0.60 0.91 1.14 1.30 1.08 0.74 1.02 1.06 0.95 0.81 0.53 0.59
0.02 0.02 0.04 0.08 0.07 0.07 0.09 0.11 0.14 0.15 0.15 0.15 0.14 0.15 0.15 0.16 0.19 0.18 0.19 0.20 0.22 0.23 0.21 0.19 0.17 0.18 0.19 0.24 0.31 0.39 0.49 0.66 0.96 1.38 1.63 1.01 0.53 0.65 0.77 0.69 0.62 0.53 0.50
0.03 0.04 0.08 0.10 0.08 0.08 0.09 0.11 0.13 0.13 0.13 0.14 0.14 0.15 0.16 0.17 0.21 0.24 0.23 0.23 0.24 0.25 0.22 0.19 0.17 0.17 0.18 0.22 0.32 0.42 0.52 0.70 0.96 1.21 1.08 0.99 0.79 0.65 0.59 0.53 0.54 0.51 0.43
0.05 0.06 0.08 0.11 0.09 0.08 0.08 0.10 0.13 0.13 0.12 0.15 0.16 0.16 0.18 0.19 0.21 0.21 0.20 0.21 0.25 0.24 0.22 0.18 0.16 0.16 0.19 0.22 0.31 0.43 0.52 0.71 0.91 0.76 0.65 0.74 0.65 0.65 0.61 0.62 0.66 0.56 0.44
0.07 0.06 0.08 0.10 0.10 0.09 0.09 0.10 0.12 0.12 0.12 0.13 0.15 0.15 0.18 0.21 0.22 0.20 0.20 0.21 0.24 0.23 0.23 0.18 0.16 0.18 0.19 0.23 0.30 0.42 0.61 0.80 0.85 0.63 0.60 0.72 0.57 0.51 0.63 0.76 0.87 0.74 0.60
0.11 0.07 0.09 0.13 0.14 0.12 0.12 0.13 0.13 0.13 0.13 0.15 0.15 0.14 0.17 0.19 0.20 0.21 0.22 0.22 0.25 0.26 0.22 0.18 0.20 0.22 0.24 0.29 0.34 0.41 0.57 0.67 0.68 0.59 0.57 0.59 0.40 0.44 0.65 0.84 0.96 0.93 0.84
0.23 0.20 0.14 0.14 0.17 0.17 0.18 0.17 0.17 0.15 0.16 0.17 0.17 0.16 0.18 0.20 0.19 0.21 0.27 0.29 0.29 0.28 0.26 0.20 0.18 0.18 0.22 0.29 0.35 0.41 0.56 0.71 0.72 0.67 0.55 0.49 0.39 0.50 0.77 0.92 0.98 1.02 0.99
0.57 0.43 0.26 0.23 0.23 0.20 0.17 0.18 0.21 0.19 0.18 0.18 0.18 0.18 0.19 0.22 0.24 0.26 0.29 0.35 0.37 0.37 0.35 0.29 0.23 0.22 0.27 0.32 0.39 0.52 0.63 0.64 0.67 0.75 0.75 0.53 0.49 0.63 0.81 0.92 1.08 1.13 1.09
1.05 0.87 0.51 0.37 0.33 0.31 0.24 0.22 0.27 0.28 0.26 0.26 0.29 0.29 0.36 0.45 0.48 0.57 0.55 0.59 0.58 0.55 0.52 0.49 0.46 0.42 0.40 0.35 0.46 0.66 0.65 0.62 0.91 1.00 0.72 0.55 0.62 0.83 0.99 1.09 1.17 1.17 1.15
1.23 1.10 0.80 0.68 0.50 0.41 0.35 0.42 0.54 0.51 0.53 0.50 0.60 0.61 0.79 1.01 0.95 0.75 0.84 1.03 1.04 1.04 0.96 0.94 0.94 0.77 0.60 0.57 1.02 1.32 0.89 0.92 1.06 0.85 0.68 0.73 0.97 1.24 1.47 1.38 1.24 1.14 1.06
1.38 1.22 0.98 0.92 0.81 0.63 0.68 0.60 0.69 0.81 0.93 0.81 0.81 0.89 1.21 1.17 0.93 0.89 0.99 1.20 1.41 1.39 1.31 1.48 1.56 1.23 1.16 1.39 1.69 1.61 1.19 1.25 1.22 1.03 0.82 0.98 1.29 1.68 1.95 1.83 1.54 1.31 1.13
1.69 1.51 1.29 1.14 0.99 0.91 0.86 0.79 0.80 0.80 0.96 0.96 1.09 1.12 1.30 1.49 1.40 1.35 1.42 1.47 1.60 1.72 2.00 2.00 2.06 1.87 1.78 1.70 1.83 1.67 1.47 1.50 1.40 1.49 1.51 1.55 1.57 1.79 2.21 2.18 1.85 1.60 1.42
2.18 2.04 1.84 1.51 1.42 1.31 1.30 1.27 1.09 1.10 1.20 1.30 1.44 1.44 1.42 1.62 1.63 1.69 1.72 1.77 1.68 1.79 1.99 2.21 2.15 2.23 2.29 2.08 1.82 1.69 1.73 1.75 1.82 1.76 1.70 1.93 1.82 1.79 2.22 2.32 2.08 1.85 1.70
2.83 2.83 2.61 2.26 2.18 2.02 1.80 1.64 1.57 1.46 1.55 1.59 1.66 1.64 1.66 1.87 2.00 1.94 1.78 1.80 1.75 1.80 1.89 2.07 2.19 2.49 2.44 2.34 1.94 1.77 1.81 1.89 1.90 1.94 1.87 2.13 2.03 1.77 1.97 2.20 2.30 2.17 1.97
3.05 3.22 3.22 3.07 3.02 2.83 2.55 2.18 1.96 1.92 1.82 1.93 2.01 1.95 1.99 2.06 2.18 2.10 1.94 1.79 1.85 1.91 2.01 2.04 2.18 2.45 2.43 2.30 2.08 1.94 1.86 1.71 1.61 1.66 1.72 1.86 1.80 1.72 1.79 1.96 2.21 2.27 2.17
3.30 3.48 3.67 3.65 3.63 3.39 3.08 2.74 2.46 2.31 2.23 2.21 2.17 2.12 2.04 2.16 2.19 2.16 1.97 1.77 1.95 1.95 2.02 2.17 2.26 2.41 2.54 2.57 2.30 2.04 1.89 1.72 1.56 1.53 1.48 1.49 1.60 1.35 1.56 1.79 1.95 2.06 2.32
3.63 3.99 4.35 4.42 4.32 3.94 3.49 3.18 3.05 2.87 2.63 2.43 2.37 2.20 2.12 2.14 2.08 2.14 1.92 1.84 1.99 2.15 2.12 1.95 2.27 2.51 2.54 2.57 2.21 2.02 1.72 1.53 1.39 1.30 1.32 1.24 1.27 1.26 1.31 1.41 1.56 1.67 2.13
4.16 4.71 4.70 4.61 4.85 4.64 4.25 3.91 3.60 3.24 2.93 2.66 2.48 2.27 2.04 1.91 1.91 2.13 1.83 1.83 2.05 2.19 2.12 2.15 2.38 2.53 2.41 2.47 2.19 1.82 1.52 1.21 1.13 1.06 0.97 0.98 0.92 0.85 0.96 1.19 1.50 1.39 1.77
4.02 4.52 4.93 4.91 4.76 4.59 4.29 3.79 3.38 2.98 2.78 2.54 2.30 2.10 2.01 1.96 2.05 2.31 2.05 2.09 2.07 2.04 2.03 2.19 2.31 2.21 2.08 2.48 2.51 1.86 1.30 0.99 0.86 0.69 0.71 0.70 0.63 0.66 0.89 1.20 1.40 1.47 1.37
3.39 3.81 4.17 4.29 3.92 3.52 3.32 3.21 3.02 2.93 2.57 2.38 2.35 2.36 2.18 2.15 2.15 2.14 2.17 2.05 2.04 2.05 1.90 1.97 2.17 2.05 1.73 2.10 2.33 2.23 1.63 1.21 0.87 0.56 0.56 0.54 0.57 0.70 0.78 0.86 1.12 1.39 1.35
2.81 2.95 3.07 3.17 3.09 3.03 3.07 3.13 3.15 3.17 2.85 2.72 2.65 2.61 2.36 2.28 2.20 2.21 2.03 1.86 1.84 1.79 1.69 1.68 1.86 1.94 1.74 1.70 2.02 2.33 1.88 1.32 1.01 0.70 0.65 0.64 0.76 0.90 0.88 0.92 0.99 1.12 1.21
2.14 2.39 2.76 2.87 2.88 2.98 3.18 3.20 3.15 3.05 2.99 2.98 3.06 3.05 2.92 2.66 2.40 2.20 1.96 1.76 1.61 1.53 1.53 1.38 1.57 1.68 1.74 1.46 1.57 1.67 1.59 1.55 1.46 1.06 0.80 0.75 0.89 0.96 0.98 1.00 1.02 1.10 1.21
1.79 2.04 2.44 2.82 2.99 3.14 3.32 3.37 3.48 3.43 3.29 3.15 3.14 3.12 2.87 2.70 2.48 2.17 1.97 1.78 1.63 1.51 1.42 1.36 1.47 1.40 1.41 1.31 1.35 1.39 1.42 1.43 1.36 1.30 1.06 0.99 0.98 0.77 0.77 0.84 0.99 1.26 1.36
1.95 2.09 2.21 2.54 2.91 3.13 3.22 3.24 3.21 3.15 3.07 2.87 2.74 2.48 2.22 2.15 2.06 1.89 1.75 1.60 1.48 1.46 1.45 1.36 1.34 1.30 1.30 1.31 1.30 1.27 1.35 1.42 1.42 1.46 1.30 1.15 1.03 0.84 0.80 0.83 0.91 1.09 1.21

GEFSSE_prec_meanprecacc_174.txt.gz
Total_Precipitation_Accumulation
0.09 0.07 0.16 0.11 0.10 0.12 0.16 0.19 0.19 0.17 0.16 0.14 0.12 0.09 0.08 0.09 0.08 0.07 0.08 0.12 0.16 0.19 0.23 0.29 0.35 0.37 0.41 0.42 0.42 0.40 0.41 0.47 0.59 0.59 0.58 0.61 0.74 0.96 1.13 1.13 1.14 0.77 0.64
0.01 0.04 0.12 0.09 0.08 0.10 0.12 0.17 0.17 0.17 0.16 0.15 0.14 0.11 0.10 0.10 0.10 0.10 0.11 0.16 0.19 0.21 0.22 0.27 0.29 0.28 0.30 0.32 0.32 0.32 0.37 0.52 0.74 0.82 0.87 0.80 0.94 1.10 1.10 1.03 1.12 0.69 0.63
0.01 0.02 0.06 0.08 0.07 0.08 0.10 0.14 0.15 0.14 0.16 0.16 0.15 0.14 0.15 0.16 0.14 0.13 0.16 0.18 0.20 0.21 0.22 0.22 0.21 0.21 0.24 0.26 0.29 0.35 0.42 0.64 0.96 1.18 1.33 1.10 0.78 1.08 1.12 1.01 0.84 0.56 0.63
0.02 0.02 0.04 0.08 0.08 0.07 0.09 0.12 0.14 0.15 0.15 0.15 0.14 0.15 0.16 0.19 0.22 0.21 0.20 0.21 0.23 0.24 0.23 0.21 0.19 0.20 0.21 0.26 0.34 0.43 0.53 0.70 1.00 1.41 1.64 1.02 0.54 0.69 0.80 0.74 0.67 0.56 0.55
0.03 0.04 0.08 0.10 0.08 0.08 0.09 0.12 0.14 0.14 0.13 0.14 0.14 0.16 0.16 0.19 0.23 0.27 0.24 0.23 0.25 0.27 0.23 0.20 0.18 0.18 0.20 0.25 0.36 0.47 0.58 0.75 0.99 1.22 1.09 1.00 0.82 0.69 0.62 0.57 0.58 0.54 0.47
0.05 0.06 0.08 0.11 0.09 0.08 0.08 0.10 0.14 0.14 0.13 0.16 0.16 0.17 0.18 0.20 0.23 0.24 0.21 0.22 0.27 0.25 0.24 0.21 0.17 0.18 0.22 0.25 0.36 0.49 0.59 0.76 0.93 0.78 0.66 0.75 0.67 0.70 0.66 0.67 0.69 0.59 0.46
0.07 0.06 0.08 0.11 0.10 0.09 0.09 0.11 0.13 0.13 0.13 0.15 0.16 0.17 0.19 0.22 0.24 0.23 0.22 0.22 0.26 0.25 0.25 0.21 0.18 0.21 0.22 0.26 0.35 0.47 0.68 0.84 0.86 0.64 0.61 0.73 0.58 0.54 0.68 0.80 0.91 0.78 0.63
0.11 0.07 0.09 0.14 0.15 0.13 0.13 0.14 0.14 0.13 0.14 0.16 0.16 0.16 0.18 0.21 0.22 0.23 0.23 0.23 0.26 0.28 0.25 0.20 0.22 0.25 0.27 0.32 0.37 0.45 0.62 0.70 0.69 0.59 0.58 0.60 0.41 0.47 0.68 0.89 1.02 0.97 0.87
0.23 0.20 0.15 0.15 0.17 0.18 0.19 0.18 0.18 0.16 0.16 0.17 0.18 0.18 0.20 0.21 0.21 0.22 0.28 0.30 0.30 0.30 0.28 0.23 0.20 0.21 0.24 0.31 0.37 0.44 0.60 0.74 0.73 0.68 0.55 0.49 0.40 0.52 0.79 0.95 1.03 1.06 1.02
0.57 0.43 0.27 0.23 0.24 0.20 0.17 0.20 0.22 0.20 0.19 0.19 0.19 0.19 0.21 0.23 0.25 0.27 0.30 0.36 0.39 0.40 0.36 0.31 0.26 0.25 0.29 0.35 0.42 0.56 0.68 0.68 0.67 0.75 0.75 0.53 0.49 0.64 0.83 0.94 1.11 1.16 1.11
1.06 0.87 0.52 0.37 0.33 0.31 0.25 0.24 0.29 0.30 0.27 0.27 0.30 0.30 0.36 0.45 0.49 0.57 0.57 0.60 0.60 0.56 0.54 0.51 0.49 0.45 0.43 0.38 0.50 0.71 0.69 0.65 0.92 1.00 0.72 0.56 0.63 0.84 1.00 1.11 1.19 1.19 1.18
1.23 1.10 0.80 0.68 0.50 0.41 0.35 0.43 0.55 0.52 0.54 0.50 0.60 0.62 0.79 1.01 0.95 0.75 0.86 1.05 1.06 1.06 0.99 0.97 0.98 0.81 0.62 0.58 1.04 1.34 0.92 0.95 1.09 0.86 0.69 0.75 0.99 1.26 1.50 1.41 1.26 1.16 1.08
1.38 1.22 0.98 0.93 0.82 0.64 0.68 0.61 0.69 0.81 0.93 0.82 0.81 0.90 1.21 1.17 0.93 0.89 0.99 1.21 1.43 1.40 1.32 1.49 1.57 1.24 1.18 1.41 1.72 1.63 1.21 1.27 1.23 1.04 0.83 1.00 1.33 1.71 1.97 1.85 1.56 1.33 1.15
1.70 1.51 1.30 1.14 1.00 0.93 0.88 0.80 0.80 0.80 0.96 0.96 1.09 1.12 1.30 1.49 1.40 1.35 1.42 1.47 1.60 1.72 2.00 2.00 2.06 1.88 1.78 1.71 1.85 1.68 1.48 1.52 1.41 1.49 1.52 1.57 1.59 1.84 2.25 2.20 1.87 1.61 1.43
2.20 2.05 1.85 1.52 1.43 1.33 1.33 1.28 1.10 1.10 1.20 1.30 1.44 1.44 1.42 1.62 1.64 1.70 1.72 1.77 1.68 1.79 1.99 2.23 2.17 2.24 2.30 2.11 1.84 1.70 1.74 1.77 1.83 1.77 1.71 1.94 1.85 1.82 2.25 2.35 2.10 1.86 1.72
2.87 2.86 2.63 2.28 2.20 2.04 1.81 1.65 1.58 1.47 1.55 1.59 1.67 1.64 1.66 1.87 2.00 1.95 1.79 1.81 1.76 1.80 1.89 2.08 2.20 2.51 2.47 2.38 1.97 1.79 1.83 1.92 1.91 1.95 1.87 2.14 2.05 1.80 2.00 2.23 2.33 2.18 1.98
3.13 3.28 3.26 3.09 3.05 2.87 2.57 2.20 1.98 1.93 1.83 1.94 2.02 1.96 2.00 2.06 2.19 2.11 1.96 1.80 1.86 1.92 2.02 2.06 2.20 2.47 2.45 2.33 2.10 1.97 1.88 1.74 1.63 1.67 1.73 1.87 1.81 1.74 1.81 1.98 2.22 2.28 2.18
3.40 3.58 3.77 3.73 3.69 3.43 3.13 2.79 2.50 2.33 2.24 2.23 2.20 2.15 2.07 2.20 2.23 2.19 1.99 1.79 1.97 1.97 2.04 2.20 2.29 2.44 2.57 2.59 2.33 2.08 1.91 1.75 1.57 1.54 1.49 1.49 1.60 1.36 1.57 1.81 1.97 2.08 2.35
3.72 4.09 4.44 4.50 4.39 4.00 3.56 3.30 3.15 2.92 2.67 2.47 2.42 2.26 2.17 2.22 2.15 2.19 1.97 1.88 2.03 2.18 2.16 1.99 2.31 2.55 2.56 2.59 2.25 2.07 1.77 1.57 1.40 1.31 1.33 1.25 1.27 1.26 1.31 1.42 1.59 1.70 2.16
4.25 4.82 4.81 4.70 4.92 4.72 4.35 4.05 3.73 3.33 2.99 2.71 2.54 2.34 2.12 2.00 1.99 2.20 1.89 1.88 2.09 2.23 2.16 2.20 2.44 2.57 2.44 2.51 2.25 1.89 1.57 1.24 1.15 1.07 0.98 0.99 0.93 0.85 0.96 1.19 1.51 1.41 1.80
4.07 4.60 5.08 5.08 4.89 4.71 4.38 3.88 3.46 3.07 2.86 2.62 2.37 2.17 2.09 2.06 2.14 2.40 2.12 2.13 2.12 2.09 2.08 2.25 2.38 2.27 2.12 2.52 2.55 1.91 1.34 1.03 0.90 0.72 0.72 0.71 0.63 0.67 0.89 1.21 1.41 1.49 1.39
3.44 3.87 4.25 4.46 4.09 3.65 3.42 3.31 3.14 3.05 2.68 2.48 2.41 2.41 2.25 2.23 2.23 2.21 2.23 2.09 2.09 2.10 1.95 2.02 2.22 2.09 1.77 2.14 2.36 2.28 1.67 1.23 0.89 0.57 0.58 0.55 0.58 0.71 0.78 0.87 1.13 1.40 1.36
2.87 3.01 3.15 3.27 3.22 3.17 3.21 3.28 3.29 3.30 2.97 2.81 2.71 2.65 2.41 2.35 2.29 2.28 2.09 1.91 1.90 1.85 1.74 1.73 1.90 1.97 1.77 1.74 2.06 2.37 1.90 1.33 1.02 0.71 0.66 0.65 0.77 0.92 0.90 0.93 0.99 1.12 1.22
2.22 2.46 2.85 2.95 2.97 3.11 3.33 3.33 3.26 3.14 3.04 3.02 3.12 3.09 2.99 2.79 2.54 2.32 2.08 1.84 1.69 1.60 1.59 1.43 1.62 1.73 1.78 1.50 1.60 1.69 1.61 1.57 1.47 1.06 0.80 0.76 0.90 0.97 0.99 1.01 1.03 1.11 1.22
1.87 2.10 2.52 2.92 3.11 3.28 3.48 3.53 3.64 3.53 3.35 3.20 3.22 3.22 3.00 2.83 2.61 2.30 2.12 1.92 1.73 1.58 1.48 1.41 1.53 1.47 1.47 1.35 1.38 1.42 1.46 1.45 1.38 1.31 1.06 0.99 0.98 0.78 0.78 0.85 1.01 1.30 1.39
2.02 2.18 2.36 2.65 3.04 3.30 3.38 3.41 3.39 3.30 3.19 2.99 2.86 2.62 2.36 2.28 2.19 2.01 1.87 1.73 1.58 1.54 1.52 1.42 1.40 1.36 1.36 1.37 1.35 1.32 1.38 1.45 1.44 1.47 1.30 1.16 1.04 0.85 0.81 0.84 0.93 1.12 1.24

GEFSSE_prec_meanprecacc_180.txt.gz
Total_Precipitation_Accumulation
0.12 0.10 0.20 0.15 0.13 0.15 0.18 0.21 0.21 0.19 0.18 0.17 0.14 0.11 0.09 0.10 0.09 0.08 0.10 0.14 0.19 0.22 0.26 0.32 0.38 0.41 0.44 0.45 0.45 0.43 0.45 0.50 0.62 0.63 0.62 0.66 0.80 1.03 1.19 1.17 1.18 0.80 0.68
0.03 0.05 0.16 0.11 0.10 0.12 0.14 0.19 0.19 0.19 0.17 0.17 0.15 0.13 0.12 0.11 0.11 0.11 0.15 0.20 0.23 0.25 0.28 0.33 0.34 0.32 0.34 0.34 0.34 0.36 0.41 0.55 0.77 0.85 0.90 0.84 0.99 1.16 1.15 1.07 1.16 0.72 0.67
0.02 0.03 0.08 0.10 0.09 0.09 0.11 0.15 0.17 0.16 0.17 0.17 0.16 0.14 0.16 0.18 0.16 0.15 0.19 0.23 0.24 0.25 0.26 0.25 0.25 0.25 0.26 0.29 0.31 0.37 0.44 0.67 0.99 1.21 1.36 1.14 0.81 1.12 1.15 1.05 0.89 0.60 0.68
0.02 0.02 0.04 0.09 0.09 0.09 0.10 0.13 0.16 0.17 0.16 0.16 0.15 0.16 0.17 0.20 0.24 0.23 0.22 0.24 0.27 0.27 0.25 0.24 0.23 0.22 0.23 0.28 0.35 0.45 0.55 0.73 1.04 1.43 1.67 1.05 0.57 0.73 0.84 0.77 0.71 0.62 0.62
0.04 0.04 0.09 0.11 0.09 0.09 0.10 0.13 0.16 0.16 0.15 0.15 0.15 0.16 0.18 0.21 0.26 0.28 0.26 0.26 0.29 0.30 0.26 0.23 0.20 0.20 0.22 0.27 0.38 0.49 0.60 0.77 1.02 1.25 1.12 1.04 0.88 0.75 0.67 0.60 0.62 0.59 0.51
0.05 0.06 0.09 0.12 0.10 0.09 0.09 0.11 0.14 0.15 0.15 0.17 0.18 0.19 0.21 0.22 0.25 0.25 0.23 0.25 0.31 0.30 0.28 0.23 0.18 0.21 0.26 0.28 0.38 0.52 0.62 0.78 0.94 0.79 0.68 0.80 0.73 0.76 0.71 0.71 0.73 0.62 0.51
0.07 0.06 0.08 0.11 0.11 0.11 0.10 0.12 0.14 0.14 0.15 0.17 0.19 0.20 0.23 0.25 0.27 0.26 0.23 0.24 0.28 0.30 0.28 0.23 0.21 0.24 0.27 0.31 0.38 0.50 0.70 0.85 0.87 0.65 0.62 0.76 0.62 0.58 0.74 0.88 0.97 0.83 0.67
0.11 0.07 0.09 0.14 0.16 0.17 0.15 0.16 0.16 0.15 0.15 0.17 0.18 0.19 0.22 0.25 0.25 0.26 0.26 0.26 0.28 0.32 0.28 0.22 0.25 0.30 0.32 0.37 0.41 0.49 0.65 0.71 0.69 0.60 0.60 0.63 0.44 0.51 0.75 0.99 1.11 1.02 0.91
0.23 0.20 0.15 0.16 0.19 0.22 0.23 0.21 0.22 0.19 0.18 0.19 0.20 0.20 0.24 0.24 0.24 0.25 0.32 0.33 0.33 0.34 0.32 0.25 0.23 0.23 0.27 0.33 0.40 0.48 0.63 0.75 0.73 0.68 0.56 0.51 0.42 0.54 0.83 1.00 1.07 1.09 1.05
0.57 0.43 0.27 0.24 0.25 0.22 0.21 0.25 0.27 0.22 0.21 0.21 0.20 0.22 0.24 0.26 0.27 0.31 0.34 0.39 0.42 0.43 0.40 0.33 0.27 0.26 0.31 0.38 0.46 0.60 0.74 0.71 0.69 0.75 0.75 0.54 0.51 0.66 0.86 0.98 1.14 1.20 1.12
1.06 0.88 0.52 0.38 0.35 0.32 0.27 0.27 0.34 0.32 0.29 0.30 0.33 0.33 0.39 0.50 0.52 0.61 0.60 0.63 0.63 0.60 0.56 0.53 0.51 0.48 0.45 0.41 0.54 0.74 0.74 0.69 0.95 1.02 0.74 0.58 0.65 0.87 1.04 1.14 1.21 1.22 1.20
1.24 1.11 0.81 0.69 0.51 0.42 0.38 0.46 0.59 0.55 0.57 0.54 0.64 0.64 0.82 1.04 0.98 0.78 0.88 1.08 1.09 1.09 1.00 1.00 1.00 0.82 0.64 0.61 1.07 1.37 0.96 0.99 1.11 0.87 0.70 0.77 1.01 1.29 1.53 1.44 1.30 1.18 1.10
1.38 1.23 0.98 0.93 0.83 0.66 0.71 0.64 0.72 0.84 0.95 0.83 0.84 0.91 1.22 1.17 0.94 0.91 1.01 1.24 1.46 1.42 1.33 1.50 1.58 1.26 1.20 1.44 1.75 1.65 1.23 1.29 1.25 1.06 0.85 1.02 1.36 1.75 2.00 1.87 1.60 1.35 1.17
1.70 1.52 1.30 1.15 1.01 0.94 0.90 0.83 0.82 0.81 0.97 0.97 1.10 1.13 1.30 1.49 1.41 1.36 1.44 1.50 1.63 1.75 2.03 2.01 2.07 1.89 1.79 1.73 1.87 1.70 1.49 1.53 1.42 1.51 1.54 1.58 1.63 1.88 2.30 2.25 1.91 1.63 1.44
2.20 2.06 1.85 1.52 1.44 1.33 1.35 1.31 1.12 1.12 1.20 1.30 1.45 1.44 1.42 1.63 1.65 1.72 1.74 1.80 1.70 1.80 2.01 2.25 2.19 2.25 2.32 2.12 1.85 1.72 1.76 1.78 1.84 1.78 1.73 1.96 1.87 1.85 2.29 2.40 2.15 1.89 1.73
2.87 2.86 2.64 2.29 2.20 2.05 1.83 1.67 1.60 1.48 1.56 1.59 1.67 1.65 1.67 1.89 2.04 1.99 1.83 1.85 1.79 1.83 1.92 2.11 2.22 2.53 2.50 2.41 2.00 1.83 1.85 1.93 1.93 1.99 1.90 2.18 2.07 1.82 2.03 2.28 2.38 2.22 2.00
3.16 3.30 3.27 3.11 3.06 2.88 2.58 2.22 1.99 1.94 1.84 1.94 2.03 1.97 2.01 2.09 2.22 2.15 2.01 1.85 1.90 1.95 2.06 2.10 2.23 2.50 2.49 2.37 2.14 2.00 1.92 1.77 1.65 1.70 1.76 1.92 1.86 1.76 1.83 2.02 2.27 2.33 2.22
3.44 3.62 3.81 3.76 3.71 3.45 3.15 2.81 2.51 2.34 2.26 2.24 2.21 2.17 2.10 2.24 2.27 2.24 2.05 1.84 2.01 2.01 2.08 2.26 2.36 2.50 2.65 2.65 2.38 2.12 1.96 1.80 1.61 1.58 1.53 1.53 1.65 1.40 1.61 1.83 2.00 2.12 2.39
3.80 4.16 4.50 4.54 4.41 4.03 3.59 3.31 3.17 2.93 2.68 2.49 2.45 2.29 2.22 2.28 2.20 2.24 2.02 1.93 2.08 2.21 2.20 2.05 2.39 2.64 2.67 2.70 2.31 2.12 1.81 1.62 1.46 1.35 1.37 1.26 1.30 1.29 1.35 1.44 1.60 1.72 2.19
4.30 4.87 4.87 4.76 4.99 4.76 4.38 4.07 3.76 3.36 3.03 2.74 2.58 2.39 2.17 2.05 2.04 2.26 1.95 1.92 2.13 2.27 2.23 2.28 2.54 2.67 2.55 2.64 2.31 1.94 1.60 1.27 1.19 1.10 1.01 1.01 0.97 0.87 0.97 1.21 1.53 1.42 1.81
4.10 4.63 5.13 5.15 5.01 4.78 4.41 3.92 3.51 3.13 2.92 2.67 2.42 2.22 2.14 2.12 2.20 2.47 2.16 2.21 2.20 2.15 2.14 2.32 2.48 2.39 2.24 2.63 2.65 2.01 1.39 1.05 0.92 0.75 0.74 0.74 0.67 0.69 0.92 1.24 1.44 1.51 1.40
3.47 3.89 4.28 4.49 4.13 3.70 3.47 3.36 3.19 3.11 2.74 2.55 2.49 2.46 2.30 2.31 2.30 2.28 2.31 2.19 2.20 2.20 2.03 2.09 2.30 2.19 1.87 2.24 2.46 2.38 1.74 1.28 0.92 0.58 0.59 0.57 0.60 0.74 0.80 0.90 1.17 1.45 1.40
2.89 3.05 3.19 3.31 3.26 3.21 3.26 3.33 3.35 3.37 3.04 2.89 2.78 2.72 2.47 2.41 2.35 2.35 2.16 2.01 2.02 1.95 1.84 1.82 1.99 2.08 1.88 1.85 2.15 2.48 1.98 1.39 1.07 0.73 0.67 0.65 0.78 0.95 0.92 0.96 1.02 1.15 1.25
2.25 2.50 2.89 3.00 3.03 3.16 3.40 3.40 3.35 3.24 3.11 3.10 3.19 3.17 3.07 2.85 2.60 2.37 2.14 1.92 1.79 1.68 1.68 1.50 1.69 1.82 1.90 1.61 1.70 1.81 1.72 1.66 1.57 1.13 0.84 0.77 0.92 0.99 1.02 1.03 1.04 1.14 1.25
1.89 2.13 2.56 2.99 3.19 3.35 3.56 3.62 3.75 3.64 3.45 3.29 3.30 3.30 3.09 2.90 2.66 2.34 2.17 1.99 1.82 1.67 1.56 1.48 1.60 1.54 1.56 1.45 1.50 1.54 1.56 1.55 1.46 1.40 1.14 1.04 1.01 0.79 0.79 0.86 1.02 1.32 1.40
2.04 2.20 2.39 2.71 3.10 3.35 3.46 3.48 3.46 3.40 3.29 3.08 2.95 2.71 2.45 2.37 2.26 2.07 1.92 1.79 1.65 1.61 1.58 1.49 1.48 1.44 1.44 1.46 1.46 1.42 1.48 1.52 1.50 1.55 1.38 1.23 1.10 0.88 0.84 0.86 0.96 1.15 1.26